Miscellaneous Local Product
Issued by NWS North Platte, NE

Home | Current Version | Previous Version | Graphics & Text | Print | Product List | Glossary On
Versions: 1 2 3 4 5 6 7 8 9 10 11 12 13 14 15 16 17 18 19 20 21 22 23 24 25 26 27 28 29 30 31 32 33 34 35 36 37 38 39 40 41 42 43 44 45 46 47 48 49 50
000
AXUS43 KLBF 251310
MISLBF


WESTERN AND NORTH CENTRAL NEBRASKA HOURLY WEATHER ROUNDUP
NATIONAL WEATHER SERVICE NORTH PLATTE NE
800 AM CDT MON JUL 25 2016

NOTE: "FAIR" INDICATES FEW OR NO CLOUDS BELOW 12,000 FEET WITH NO
SIGNIFICANT WEATHER AND/OR OBSTRUCTIONS TO VISIBILITY.

NOTE: STATIONS NOT REPORTING VARIABLES SUCH AS SKY/WEATHER OR
PRESSURE ARE PROVIDED BY RAWS AND APRS NETWORKS AND ARE NOT UNDER
NATIONAL WEATHER SERVICE QUALITY CONTROL.

...OBSERVATIONS IN AND NEAR THE EASTERN PANHANDLE OF NEBRASKA...

CITY           SKY/WX    TMP DP  RH WIND       PRES   REMARKS
PINE RIDGE     SUNNY     66  60  81 CALM      30.15S
CHADRON        SUNNY     65  55  70 CALM      30.13R
ALLIANCE       SUNNY     61  59  93 SE8       30.18S
SIDNEY         SUNNY     60  56  86 S7        30.22F
CRESCENT LAKE    N/A     63  60  90 SE5         N/A
$$

...OBSERVATIONS IN NORTHERN NEBRASKA AND FAR SOUTHERN SOUTH DAKOTA...

CITY           SKY/WX    TMP DP  RH WIND       PRES   REMARKS
WINNER         FAIR      71  54  54 S10       30.12S
VALENTINE      SUNNY     65  59  81 SW3       30.15S
THEDFORD       SUNNY     61  60  96 CALM      30.19S
AINSWORTH      SUNNY     65  56  74 S6        30.16S
O`NEILL        SUNNY     65  59  81 CALM      30.16S
ORD            MOSUNNY   65  60  84 CALM      30.16R
BROKEN BOW     CLOUDY    62  61  96 E3        30.18R
VALENTINE NWR    N/A     59  57  94 S3          N/A
BUTTE            N/A     65  58  78 CALM        N/A
HALSEY           N/A     62  61  96 S3          N/A
EWING            N/A     65  62  90 CALM        N/A
$$

...OBSERVATIONS IN SOUTHWEST NEBRASKA AND FAR NORTHEAST COLORADO...

CITY           SKY/WX    TMP DP  RH WIND       PRES   REMARKS
WRAY           FAIR      61  61 100 CALM      30.19F
HOLYOKE          N/A     61  57  88 CALM      30.20F
IMPERIAL       SUNNY     63  60  90 CALM      30.19R
OGALLALA       SUNNY     62  59  92 CALM      30.20S
NORTH PLATTE   SUNNY     63  61  93 E6        30.18S
MCCOOK         CLOUDY    65  62  90 NE6       30.16S FOG
LEXINGTON      CLOUDY    64  62  93 CALM      30.18S
STAPLETON        N/A     61  60  96 CALM        N/A
GOTHENBURG       N/A     64  58  80 CALM        N/A
CALLAWAY         N/A     61  60  97 S3          N/A
$$

...OBSERVATIONS IN CENTRAL LINCOLN COUNTY AREA...

CITY           SKY/WX    TMP DP  RH WIND       PRES   REMARKS
N.P. AIRPORT   SUNNY     63  61  93 E6        30.18S
N.P. DOWNTOWN    N/A     66  62  86 CALM        N/A
N.P. SOUTHEAST   N/A     66  62  88 CALM        N/A
N.P. HILLCREST   N/A     66  63  89 E8          N/A
$$

...SOME OBSERVATIONS FROM AROUND THE REGION...

CITY           SKY/WX    TMP DP  RH WIND       PRES   REMARKS
DENVER         MOSUNNY   62  53  72 SW6       30.20F
LARAMIE        CLOUDY    50  47  89 SE3       30.32R
CHEYENNE       SUNNY     57  54  89 S6        30.24S
SCOTTSBLUFF    SUNNY     61  55  81 E10       30.16F
RAPID CITY     SUNNY     68  56  65 S8        30.09R
BISMARCK       SUNNY     66  62  87 E5        30.00F
PIERRE         SUNNY     72  57  59 VRB3      30.06S
SIOUX FALLS    MOSUNNY   69  61  75 CALM      30.12S
OMAHA          MOSUNNY   70  64  81 NW3       30.11R
GRAND ISLAND   CLOUDY    67  63  87 SE5       30.17R
KANSAS CITY    CLOUDY    73  67  81 NE9       30.06S
WICHITA        LGT RAIN  72  68  87 NE23      30.03F
OKLAHOMA CITY  MOSUNNY   82  69  64 N10       30.03S
DALLAS         CLOUDY    83  73  72 S6        29.97S
AMARILLO       CLOUDY    71  64  78 CALM      30.14S
DODGE CITY     PTSUNNY   68  66  93 N5        30.09R
HAYS           MOSUNNY   68  59  73 NE14      30.08S
GOODLAND       SUNNY     63  60  90 CALM      30.19S
$$




USA.gov is the U.S. government's official web portal to all federal, state and local government web resources and services.